Location: Wangen+im+Allg�u
(47.7098°N, 9.8383°E)
Time: 14:36:49
(UTC+02:00)

ISS - Visible Passes

Search period start: 24 July 2017 00:00
Search period end: 03 August 2017 00:00
Orbit: 400 x 408 km, 51.6° (Epoch: 24 July)

Date Brightness Start Highest point End Pass type
(mag) Time Alt. Az. Time Alt. Az. Time Alt. Az.
24 Jul -2.5 00:59:55 10° W 01:03:02 41° N 01:06:09 10° ENE visible
24 Jul -3.0 02:36:40 10° WNW 02:39:52 51° NNE 02:43:04 10° E visible
24 Jul -3.5 04:13:13 10° WNW 04:16:21 43° SSW 04:19:28 10° SE visible
24 Jul -3.7 22:30:57 10° SW 22:34:06 50° SSE 22:37:16 10° ENE visible
25 Jul -2.9 00:07:27 10° W 00:10:37 48° NNW 00:13:48 10° ENE visible
25 Jul -2.6 01:44:20 10° WNW 01:47:28 42° N 01:50:37 10° E visible
25 Jul -4.0 03:20:51 10° WNW 03:24:07 71° SSW 03:27:21 10° ESE visible
25 Jul -2.0 04:58:27 10° WSW 05:00:05 13° SW 05:01:44 10° SSW visible
25 Jul -3.0 21:39:00 10° SSW 21:41:54 30° SE 21:44:48 10° E visible
25 Jul -3.4 23:15:01 10° W 23:18:14 62° NNW 23:21:29 10° ENE visible
26 Jul -2.4 00:51:56 10° WNW 00:55:02 39° N 00:56:44 22° ENE visible
26 Jul -1.4 02:28:31 10° WNW 02:29:16 16° WNW 02:29:16 16° WNW visible
26 Jul -3.9 22:22:37 10° WSW 22:25:52 88° NNW 22:29:08 10° ENE visible
26 Jul -2.5 23:59:29 10° WNW 00:02:36 40° N 00:05:20 12° ENE visible
27 Jul -2.1 01:36:11 10° WNW 01:37:56 27° NW 01:37:56 27° NW visible
27 Jul -2.7 23:06:59 10° W 23:10:08 45° N 23:13:18 10° ENE visible
28 Jul -2.8 00:43:50 10° WNW 00:46:56 45° N 00:46:56 45° N visible
28 Jul -3.1 22:14:29 10° W 22:17:42 56° NNW 22:20:55 10° ENE visible
28 Jul -2.5 23:51:25 10° WNW 23:54:31 40° N 23:56:05 23° ENE visible
29 Jul -1.3 01:27:58 10° WNW 01:28:42 16° WNW 01:28:42 16° WNW visible
29 Jul -2.5 22:58:56 10° WNW 23:02:02 39° N 23:05:08 10° ENE visible
30 Jul -2.6 00:35:36 10° WNW 00:37:53 40° NW 00:37:53 40° NW visible
30 Jul -2.6 22:06:24 10° W 22:09:32 42° N 22:12:40 10° ENE visible
30 Jul -3.0 23:43:12 10° WNW 23:46:23 47° NNE 23:47:07 39° NE visible
31 Jul -0.8 01:19:43 10° WNW 01:19:43 10° WNW 01:19:43 10° WNW visible
31 Jul -2.6 22:50:46 10° WNW 22:53:53 41° N 22:56:21 15° ENE visible
01 Aug -2.1 00:27:17 10° WNW 00:28:58 28° WNW 00:28:58 28° WNW visible
01 Aug -2.5 21:58:16 10° WNW 22:01:21 39° N 22:04:27 10° ENE visible
01 Aug -3.7 23:34:53 10° WNW 23:38:08 69° NNE 23:38:14 68° NE visible
02 Aug -3.1 22:42:28 10° WNW 22:45:39 51° NNE 22:47:30 22° E visible
